Location: ????? ????
(37.9717°N, 23.4051°E)
Time: 03:23:52
(UTC+00:00)

Milstar 3 - Pass Details

Date: 18 April 2024
Orbit: 1098 x 5146 km, 28.2° (Epoch: 19 May)

Event Time Altitude Azimuth Distance (km) Brightness Sun altitude
Rises 17:13:08 0° 233° (SW) 4,096 6.3 -2.3°
Reaches altitude 10° 17:15:41 10° 225° (SW) 3,309 5.7 -2.8°
Maximum altitude 17:23:12 41° 157° (SSE) 2,370 4.2 -4.2°
Drops below altitude 10° 17:35:59 10° 94° (E) 5,559 5.8 -6.6°
Enters shadow 17:39:30 - 90° (E) 6,577 6.2 -7.2°
